Location: Clarks Summit,Pa.
(41.5000°N, 75.6000°W)
Time: 10:26:10
(UTC-05:00)

ISS - Visible Passes

Search period start: 01 December 2021 00:00
Search period end: 11 December 2021 00:00
Orbit: 417 x 423 km, 51.6° (Epoch: 01 December)

Date Brightness Start Highest point End Pass type
(mag) Time Alt. Az. Time Alt. Az. Time Alt. Az.
01 Dec -1.7 17:22:27 10° NNW 17:24:36 16° N 17:26:23 11° NE visible
01 Dec -0.8 18:59:00 10° NW 18:59:22 12° NW 18:59:22 12° NW visible
02 Dec -2.2 18:11:55 10° NW 18:14:13 25° N 18:14:13 25° N visible
03 Dec -2.1 17:24:49 10° NW 17:27:28 21° NNE 17:29:10 15° NE visible
03 Dec -1.0 19:01:17 10° NW 19:02:10 17° NW 19:02:10 17° NW visible
04 Dec -3.5 18:14:07 10° NW 18:17:15 53° NNE 18:17:15 53° NNE visible
05 Dec -3.0 17:26:59 10° NW 17:30:10 36° NNE 17:32:31 16° E visible
05 Dec -1.2 19:03:55 10° WNW 19:05:33 22° W 19:05:33 22° W visible
06 Dec -3.0 18:16:29 10° WNW 18:19:49 53° SW 18:21:05 32° SSE visible
07 Dec -3.8 17:29:12 10° NW 17:32:37 90° SSE 17:36:00 10° SE visible
07 Dec -0.5 19:08:09 10° WSW 19:08:56 11° SW 19:09:43 10° SW visible
08 Dec -0.9 18:19:30 10° W 18:21:54 18° SW 18:24:16 10° S visible
09 Dec -1.6 17:31:46 10° WNW 17:34:47 30° SW 17:37:47 10° SSE visible
